When you browse on this site, cookies collect data to enhance your experience and personalize the content and advertising you see.
Visit our Privacy Policy to learn more. By continuing to use the site, you agree to this use of cookies and data.
  • In Czech Republic
  • List of Countries
  • For 7 days
  • Water Temperature
  • Satellite Maps
  • Weather Map
  • Weather Widgets
  • user-avatar
    Login

    Hourly Weather Frankfort

    Today, 15 December, Saturday

    Time Temperature Precipitation Wind Pressure Humidity
    00:00 +10°C° 0 mm 4 mps 740 mmHg 94%
    01:00 +10°C° 1.6 mm 4 mps 739 mmHg 94%
    02:00 +8°C° 1.6 mm 4 mps 739 mmHg 94%
    03:00 +8°C° 1.6 mm 4 mps 739 mmHg 95%
    04:00 +8°C° 1.5 mm 4 mps 738 mmHg 95%
    05:00 +8°C° 1.5 mm 4 mps 738 mmHg 95%
    06:00 +8°C° 1.5 mm 4 mps 738 mmHg 94%
    07:00 +10°C° 1.4 mm 4 mps 738 mmHg 95%
    08:00 +10°C° 1.4 mm 3 mps 738 mmHg 95%
    09:00 +10°C° 1.4 mm 3 mps 739 mmHg 96%
    10:00 +10°C° 1.6 mm 2 mps 739 mmHg 96%
    11:00 +10°C° 1.6 mm 2 mps 738 mmHg 96%
    12:00 +11°C° 1.6 mm 1 mps 738 mmHg 95%
    13:00 +11°C° 0.4 mm 1 mps 738 mmHg 95%
    14:00 +11°C° 0.4 mm 1 mps 738 mmHg 95%
    15:00 +11°C° 0.4 mm 1 mps 738 mmHg 94%
    16:00 +10°C° 0.4 mm 2 mps 738 mmHg 95%
    17:00 +10°C° 0.4 mm 2 mps 739 mmHg 96%
    18:00 +9°C° 0.4 mm 2 mps 739 mmHg 96%
    19:00 +9°C° 0.8 mm 2 mps 739 mmHg 96%
    20:00 +9°C° 0.8 mm 2 mps 740 mmHg 97%
    21:00 +8°C° 0.8 mm 2 mps 740 mmHg 97%
    22:00 +8°C° 0.5 mm 3 mps 740 mmHg 96%
    23:00 +8°C° 0.5 mm 3 mps 740 mmHg 95%

    Tomorrow, 16 December, Sunday

    Time Temperature Precipitation Wind Pressure Humidity
    00:00 +8°C° 0.5 mm 3 mps 740 mmHg 95%
    01:00 +7°C° 0.1 mm 3 mps 741 mmHg 94%
    02:00 +7°C° 0.1 mm 3 mps 741 mmHg 94%
    03:00 +5°C° 0.1 mm 3 mps 741 mmHg 94%
    04:00 +5°C° 0 mm 3 mps 741 mmHg 93%
    05:00 +5°C° 0 mm 3 mps 742 mmHg 93%
    06:00 +4°C° 0 mm 4 mps 742 mmHg 93%
    07:00 +4°C° 0 mm 4 mps 743 mmHg 92%
    08:00 +5°C° 0 mm 4 mps 743 mmHg 92%
    09:00 +5°C° 0 mm 3 mps 744 mmHg 91%
    10:00 +7°C° 0 mm 3 mps 744 mmHg 88%
    11:00 +8°C° 0 mm 3 mps 744 mmHg 86%
    12:00 +9°C° 0 mm 2 mps 744 mmHg 83%
    13:00 +9°C° 0 mm 3 mps 744 mmHg 83%
    14:00 +9°C° 0 mm 3 mps 744 mmHg 82%
    15:00 +9°C° 0 mm 3 mps 744 mmHg 81%
    16:00 +8°C° 0 mm 3 mps 744 mmHg 84%
    17:00 +7°C° 0 mm 2 mps 744 mmHg 87%
    18:00 +6°C° 0 mm 2 mps 745 mmHg 90%
    19:00 +5°C° 0 mm 2 mps 745 mmHg 91%
    20:00 +4°C° 0 mm 2 mps 745 mmHg 91%
    21:00 +4°C° 0 mm 2 mps 745 mmHg 91%
    22:00 +3°C° 0 mm 2 mps 745 mmHg 91%
    23:00 +3°C° 0 mm 2 mps 744 mmHg 90%

    Day after tomorrow, 17 December, Monday

    Time Temperature Precipitation Wind Pressure Humidity
    00:00 +2°C° 0 mm 3 mps 744 mmHg 90%
    01:00 +2°C° 0 mm 2 mps 744 mmHg 91%
    02:00 +2°C° 0 mm 2 mps 744 mmHg 91%
    03:00 +2°C° 0 mm 2 mps 744 mmHg 92%
    04:00 +1°C° 0 mm 2 mps 744 mmHg 92%
    05:00 +1°C° 0 mm 2 mps 744 mmHg 93%
    06:00 -1°C° 0 mm 2 mps 745 mmHg 94%
    07:00 +1°C° 0 mm 2 mps 745 mmHg 90%
    08:00 +1°C° 0 mm 3 mps 746 mmHg 86%
    09:00 +1°C° 0 mm 3 mps 746 mmHg 83%
    10:00 +2°C° 0 mm 3 mps 746 mmHg 77%
    11:00 +3°C° 0 mm 3 mps 746 mmHg 70%
    12:00 +4°C° 0 mm 3 mps 746 mmHg 64%
    13:00 +4°C° 0 mm 3 mps 746 mmHg 65%
    14:00 +4°C° 0 mm 3 mps 746 mmHg 65%
    15:00 +4°C° 0 mm 3 mps 746 mmHg 65%
    16:00 +4°C° 0 mm 2 mps 746 mmHg 70%
    17:00 +2°C° 0 mm 2 mps 746 mmHg 76%
    18:00 +1°C° 0 mm 2 mps 747 mmHg 81%
    19:00 -1°C° 0 mm 2 mps 747 mmHg 82%
    20:00 -1°C° 0 mm 2 mps 747 mmHg 83%
    21:00 +1°C° 0 mm 1 mps 748 mmHg 84%
    22:00 0°C° 0 mm 1 mps 747 mmHg 85%
    23:00 0°C° 0 mm 1 mps 747 mmHg 85%

    18 December, Tuesday

    Time Temperature Precipitation Wind Pressure Humidity
    00:00 0°C° 0 mm 1 mps 747 mmHg 86%
    01:00 0°C° 0 mm 1 mps 747 mmHg 86%
    02:00 0°C° 0 mm 1 mps 747 mmHg 86%
    03:00 -1°C° 0 mm 1 mps 747 mmHg 86%
    04:00 -1°C° 0 mm 1 mps 747 mmHg 85%
    05:00 -1°C° 0 mm 1 mps 748 mmHg 85%
    06:00 -1°C° 0 mm 1 mps 748 mmHg 84%
    07:00 0°C° 0 mm 1 mps 748 mmHg 78%
    08:00 +2°C° 0 mm 1 mps 748 mmHg 71%
    09:00 +2°C° 0 mm 2 mps 749 mmHg 65%
    10:00 +3°C° 0 mm 2 mps 748 mmHg 59%
    11:00 +4°C° 0 mm 2 mps 747 mmHg 54%
    12:00 +7°C° 0 mm 1 mps 747 mmHg 48%
    13:00 +7°C° 0 mm 1 mps 746 mmHg 49%
    14:00 +7°C° 0 mm 1 mps 746 mmHg 50%
    15:00 +7°C° 0 mm 1 mps 746 mmHg 51%
    16:00 +5°C° 0 mm 1 mps 746 mmHg 57%
    17:00 +4°C° 0 mm 1 mps 746 mmHg 62%
    18:00 +2°C° 0 mm 1 mps 746 mmHg 67%
    19:00 +2°C° 0 mm 1 mps 746 mmHg 69%
    20:00 +2°C° 0 mm 1 mps 746 mmHg 70%
    21:00 +2°C° 0 mm 1 mps 746 mmHg 71%
    22:00 +1°C° 0 mm 1 mps 746 mmHg 71%
    23:00 +1°C° 0 mm 1 mps 745 mmHg 72%

    19 December, Wednesday

    Time Temperature Precipitation Wind Pressure Humidity
    00:00 +1°C° 0 mm 1 mps 745 mmHg 73%
    01:00 +1°C° 0 mm 1 mps 745 mmHg 74%
    02:00 +1°C° 0 mm 1 mps 745 mmHg 75%
    03:00 +1°C° 0 mm 1 mps 745 mmHg 76%
    04:00 +1°C° 0 mm 1 mps 745 mmHg 78%
    05:00 0°C° 0 mm 1 mps 744 mmHg 80%
    06:00 0°C° 0 mm 1 mps 744 mmHg 81%
    07:00 +1°C° 0 mm 2 mps 744 mmHg 76%
    08:00 +2°C° 0 mm 2 mps 745 mmHg 71%
    09:00 +3°C° 0 mm 2 mps 745 mmHg 66%
    10:00 +5°C° 0 mm 2 mps 744 mmHg 63%
    11:00 +6°C° 0 mm 2 mps 743 mmHg 59%
    12:00 +8°C° 0 mm 3 mps 743 mmHg 55%
    13:00 +8°C° 0 mm 2 mps 742 mmHg 59%
    14:00 +8°C° 0 mm 2 mps 742 mmHg 63%
    15:00 +8°C° 0 mm 2 mps 741 mmHg 67%
    16:00 +6°C° 0 mm 2 mps 741 mmHg 72%
    17:00 +5°C° 0 mm 2 mps 741 mmHg 77%
    18:00 +4°C° 0 mm 2 mps 740 mmHg 83%
    19:00 +4°C° 0 mm 2 mps 740 mmHg 83%
    20:00 +4°C° 0 mm 2 mps 740 mmHg 84%
    21:00 +5°C° 0 mm 2 mps 739 mmHg 85%
    22:00 +5°C° 0 mm 2 mps 739 mmHg 86%
    23:00 +4°C° 0 mm 3 mps 738 mmHg 88%

    20 December, Thursday

    Time Temperature Precipitation Wind Pressure Humidity
    00:00 +4°C° 0 mm 3 mps 738 mmHg 89%
    01:00 +4°C° 0 mm 3 mps 737 mmHg 89%
    02:00 +4°C° 0 mm 3 mps 737 mmHg 89%
    03:00 +4°C° 0 mm 3 mps 737 mmHg 88%
    04:00 +4°C° 0 mm 3 mps 736 mmHg 90%
    05:00 +4°C° 0 mm 3 mps 736 mmHg 91%
    06:00 +4°C° 0 mm 3 mps 736 mmHg 93%
    07:00 +5°C° 0 mm 3 mps 735 mmHg 90%
    08:00 +6°C° 0 mm 4 mps 735 mmHg 87%
    09:00 +7°C° 0 mm 4 mps 735 mmHg 84%
    10:00 +7°C° 0.1 mm 4 mps 734 mmHg 83%
    11:00 +8°C° 0.1 mm 4 mps 734 mmHg 82%
    12:00 +8°C° 0.1 mm 4 mps 733 mmHg 81%
    13:00 +8°C° 0.3 mm 4 mps 733 mmHg 84%
    14:00 +9°C° 0.3 mm 3 mps 732 mmHg 87%
    15:00 +9°C° 0.3 mm 3 mps 731 mmHg 90%
    16:00 +8°C° 0.4 mm 3 mps 731 mmHg 92%
    17:00 +8°C° 0.4 mm 3 mps 731 mmHg 93%
    18:00 +7°C° 0.4 mm 2 mps 730 mmHg 95%
    19:00 +7°C° 0.1 mm 2 mps 730 mmHg 95%
    20:00 +7°C° 0.1 mm 2 mps 729 mmHg 96%
    21:00 +8°C° 0.1 mm 1 mps 729 mmHg 97%
    22:00 +8°C° 0.1 mm 1 mps 728 mmHg 97%
    23:00 +8°C° 0.1 mm 1 mps 728 mmHg 97%
    Show more